Погода в Столбище

Россия / Республика Татарстан     55°38′33″N   49°13′02″E
темп.,
°C
ветер,
м/с
пор.,
м/с
влажн.,
%
обл.,
%
осадки,
мм/ч
давл.,
гПа
погр.,
м
6 мая, чт
чт600:00+4зюз4108377 0.0 1011296
03:00+5зюз3776100 0.0 1013247
06:00+6юз2377100 0.1 1014105
09:00+10зюз357385 0.1 1015573
12:00+14юз466513 0.0 1016899
15:00+17юз6851100 0.2 10152156
18:00+15ююз4964100 0.0 1015295
21:00+11ююз3576100 0.0 101673
7 мая, пт
пт700:00+10ю398097 0.0 1016165
03:00+9ю4108188 0.0 1016190
06:00+10ю51273100 0.0 1016359
09:00+15ю71255100 0.0 1015901
12:00+17ююз81345100 0.0 10152174
15:00+17юз7115499 0.3 10151940
18:00+13сз567999 1.1 1016364
21:00+10зсз2388100 3.3 1018128
8 мая, сб
сб800:00+10с0087100 0.6 101930
03:00+9св1290100 0.9 101943
06:00+10в2389100 0.0 1019165
09:00+13вюв2478100 0.0 1019450
12:00+17ююв47575 0.1 10171183
15:00+19ююз694730 0.1 10161884
18:00+17ююв486397 0.0 1015364
21:00+14ююв41069100 0.0 1015212
9 мая, вс
вс900:00+12ююв412748 0.0 1015242
03:00+11ююв51476100 0.0 1014276
06:00+13ююв51471100 0.0 1014402
09:00+15ююв51367100 0.0 1014576
12:00+18ююв71157100 0.0 10131236
15:00+17ю61162100 0.0 1014803
18:00+15вюв3872100 0.0 1014173
21:00+14ююв41274100 0.1 1014286
10 мая, пн
пн1000:00+14зюз2278100 0.4 101540
03:00+11ссз4694100 0.4 1017198
06:00+12ссв3694100 0.5 1018130
09:00+16ссв4575100 0.5 1019403
12:00+20св4456100 0.0 10201045
15:00+21ссв445096 0.1 10211435
18:00+14с6978100 0.6 1023384
21:00+11ссв6118593 0.6 1025331